Regional Weather Roundup
Issued by NWS

Home | Current Version | Previous Version | Graphics & Text | Print | Product List | Glossary On
Versions: 1 2 3 4 5 6 7 8 9 10 11 12 13 14 15 16 17 18 19 20 21 22 23 24 25 26 27 28 29 30 31 32 33 34 35 36 37 38 39 40 41 42 43 44 45 46 47 48 49 50
082
ASUS43 KIND 220559
RWRIN

WEATHER ROUNDUP FOR INDIANA
NATIONAL WEATHER SERVICE INDIANAPOLIS IN
200 AM EDT FRI MAY 22 2015

NOTE: "FAIR" INDICATES FEW OR NO CLOUDS BELOW 12,000 FEET WITH NO
SIGNIFICANT WEATHER AND/OR OBSTRUCTIONS TO VISIBILITY.

* - STATION DOES NOT REPORT WEATHER SUCH AS PRECIPITATION OR FOG.

+ - STATION NOT QUALITY CONTROLLED BY THE NATIONAL WEATHER SERVICE.
    USE DATA WITH CAUTION...ESPECIALLY DEWPOINT AND RELATIVE
    HUMIDITY OBSERVATIONS.

INZ001>003-010>013-019-020-220700-
NORTHWEST INDIANA

CITY           SKY/WX    TMP DP  RH WIND       PRES   REMARKS
RENSSELAER +   CLEAR     54  41  62 SW9       30.08S

$$

LMZ046-743>745-220700-
SOUTHERN LAKE MICHIGAN

STATION/POSITION TIME  TEMP    WIND        PRES    WAVE
                       AIR SEA DIR/SP/G            HT
                 (UTC) (F)     (DEG/KT/KT) (MB)    (FT)
BURNS HARBOR     0500   58     210/ 13/ 19 1017.3F
MICHIGAN CITY    0500   58     180/ 12/ 14   N/A
5NW MICH CITY    0500   55 51  220/ 10/ 12   N/A     1

$$

INZ004-005-014>016-021>024-220700-
NORTH CENTRAL INDIANA

CITY           SKY/WX    TMP DP  RH WIND       PRES   REMARKS
GOSHEN         CLEAR     49  38  65 SW9       30.04S
6HR MIN TEMP:  48; 6HR MAX TEMP:  60;

SOUTH BEND     PTCLDY    55  35  47 SW10      30.04S
6HR MIN TEMP:  52; 6HR MAX TEMP:  63;


$$

INZ006>009-017-018-025>027-220700-
NORTHEAST INDIANA

CITY           SKY/WX    TMP DP  RH WIND       PRES   REMARKS
ANGOLA *+      CLEAR     52  37  58 W5        30.03S
FORT WAYNE     CLEAR     46  40  79 SW9       30.06F
6HR MIN TEMP:  46; 6HR MAX TEMP:  61;


$$

INZ028-029-035-036-043>045-051>053-220700-
WEST CENTRAL INDIANA

CITY           SKY/WX    TMP DP  RH WIND       PRES   REMARKS
CRAWFORDSVL +  CLEAR     47  37  66 SW8       30.12S
6HR MIN TEMP:  47; 6HR MAX TEMP:  61;

GREENCASTLE +  CLEAR     46  37  71 CALM      30.13F
LAFAYETTE      CLEAR     47  40  76 W5        30.10S
6HR MIN TEMP:  47; 6HR MAX TEMP:  63;

TERRE HAUTE    CLEAR     50  43  77 W8        30.14F
6HR MIN TEMP:  50; 6HR MAX TEMP:  62;


$$

INZ030>032-037>040-046>048-054>057-064-065-220700-
CENTRAL INDIANA

CITY           SKY/WX    TMP DP  RH WIND       PRES   REMARKS
GREENWOOD *+   CLEAR     50  39  66 SW5       30.13S
INDIANAPOLIS   CLEAR     47  41  80 SW8       30.11S
6HR MIN TEMP:  47; 6HR MAX TEMP:  62;

-EAGLE CREEK   CLEAR     50  41  71 SW6       30.11S
6HR MIN TEMP:  50; 6HR MAX TEMP:  61;

KOKOMO *+      CLEAR     50  39  66 W8        30.09S
6HR MIN TEMP:  50; 6HR MAX TEMP:  63;

MT COMFORT *+  CLEAR     50  34  53 SW8       30.12S
SHELBYVILLE    CLEAR     48  41  76 SW7       30.12S
6HR MIN TEMP:  48; 6HR MAX TEMP:  63;


$$

INZ033-034-041-042-049-050-058-059-220700-
EAST CENTRAL INDIANA

CITY           SKY/WX    TMP DP  RH WIND       PRES   REMARKS
MUNCIE         CLEAR     50  39  66 SW7       30.09S
6HR MIN TEMP:  50; 6HR MAX TEMP:  60;


$$

INZ060-061-067>069-081>083-085>088-220700-
SOUTHWEST INDIANA

CITY           SKY/WX    TMP DP  RH WIND       PRES   REMARKS
EVANSVILLE     CLEAR     46  43  89 W5        30.19S
6HR MIN TEMP:  46; 6HR MAX TEMP:  59;

HUNTINGBURG *+ CLEAR     46  41  81 S3        30.18F
6HR MIN TEMP:  46; 6HR MAX TEMP:  57;


$$

INZ062-063-066-070>080-084-089>092-220700-
SOUTH CENTRAL AND SOUTHEAST INDIANA

CITY           SKY/WX    TMP DP  RH WIND       PRES   REMARKS
BLOOMINGTON    CLEAR     50  43  77 W5        30.14F
6HR MIN TEMP:  50; 6HR MAX TEMP:  59;

MADISON *+     CLEAR     45  41  87 CALM      30.17S
SEYMOUR +      CLEAR     46  41  81 CALM      30.15S

$$




USA.gov is the U.S. government's official web portal to all federal, state and local government web resources and services.